PBO Station Position Time Series. Reference Frame : NAM14
Format Version,1.1.1
4-character ID,P466
Station name,CerroGordoCS2007
Begin Date, 2007-05-12
End Date, 2023-06-26
Release Date, 2023-06-27
Reference position, 36.5312493444 North Latitude, -117.7894615471 East Longitude, 2754.58467 meters elevation,
Date, North (mm), East (mm), Vertical (mm), North Std. Deviation (mm), East Std. Deviation (mm),              Vertical Std. Deviation (mm), Quality,
2007-05-12,0.00, 0.00, 0.00, 1.94, 1.58, 7.10, repro,
2007-05-13,-0.29, -1.48, 5.68, 2.00, 1.63, 7.30, repro,
2007-05-14,0.57, -0.45, -1.48, 1.97, 1.61, 7.21, repro,
2007-05-15,-0.07, -0.40, -0.21, 1.95, 1.58, 7.09, repro,
2007-05-16,0.46, -0.38, -0.15, 1.94, 1.57, 7.02, repro,
2007-05-17,-0.24, 0.06, 2.36, 1.98, 1.63, 7.22, repro,
2007-05-18,-0.06, -0.49, 1.52, 2.06, 1.71, 7.53, repro,
2007-05-19,-0.89, -0.09, -0.39, 2.00, 1.62, 7.27, repro,
2007-05-20,1.70, 0.16, 1.90, 2.05, 1.69, 7.44, repro,
2007-05-21,-0.18, 0.16, 1.65, 1.97, 1.61, 7.15, repro,
2007-05-22,-0.48, 0.47, 4.85, 1.97, 1.61, 7.15, repro,
2007-05-23,-1.08, -0.49, 9.69, 2.11, 1.78, 7.74, repro,
2007-05-24,-0.17, -0.27, 1.10, 2.17, 1.81, 8.01, repro,
2007-05-25,-0.22, 0.26, 1.57, 1.99, 1.62, 7.23, repro,
2007-05-26,-0.69, 0.31, 1.48, 1.99, 1.62, 7.21, repro,
2007-05-27,-0.79, 0.09, 4.00, 1.98, 1.63, 7.12, repro,
2007-05-28,-0.49, 0.41, 4.05, 1.97, 1.62, 7.18, repro,
2007-05-29,-0.59, 0.09, 4.21, 1.96, 1.59, 7.12, repro,
2007-05-30,-0.31, 1.49, 1.11, 2.02, 1.60, 7.22, repro,
2007-05-31,0.57, 0.79, 2.57, 2.01, 1.62, 7.19, repro,
2007-06-01,-1.31, -1.26, 5.05, 1.95, 1.58, 7.05, repro,
2007-06-02,-0.78, 0.68, 6.07, 1.93, 1.59, 7.07, repro,
2007-06-03,-0.15, -0.02, 1.98, 1.94, 1.59, 7.12, repro,
2007-06-04,-0.41, -0.15, 5.32, 1.96, 1.59, 7.14, repro,
2007-06-05,-0.87, 1.10, -0.31, 2.05, 1.62, 7.42, repro,
2007-06-06,-1.47, -0.83, 17.31, 1.96, 1.59, 7.13, repro,
2007-06-07,-0.47, -0.09, 8.29, 1.93, 1.58, 7.06, repro,
2007-06-08,-0.07, -0.54, 2.46, 1.94, 1.59, 7.06, repro,
2007-06-09,-0.76, 0.74, 2.92, 1.96, 1.63, 7.20, repro,
2007-06-10,-0.57, -0.16, 2.22, 1.95, 1.59, 7.12, repro,
2007-06-11,-0.96, 0.83, 5.26, 1.99, 1.68, 7.33, repro,
2007-06-12,0.45, 1.37, 3.13, 2.00, 1.69, 7.33, repro,
2007-06-13,0.55, 0.47, -1.53, 1.99, 1.64, 7.23, repro,
2007-06-14,-0.51, 0.88, -2.48, 1.98, 1.64, 7.24, repro,
2007-06-15,-0.19, 0.47, 2.29, 1.94, 1.59, 7.11, repro,
2007-06-16,-1.02, 1.06, 1.18, 1.94, 1.59, 7.08, repro,
2007-06-17,-0.29, -0.35, 2.21, 1.94, 1.61, 7.14, repro,
2007-06-18,-0.18, 0.91, 5.18, 1.93, 1.59, 7.07, repro,
2007-06-19,0.16, 0.66, -4.45, 1.94, 1.60, 7.12, repro,
2007-06-20,-0.20, 1.24, -6.02, 1.93, 1.59, 7.09, repro,
2007-06-21,-0.94, 0.35, -0.64, 1.93, 1.58, 7.05, repro,
2007-06-22,-0.16, 0.39, -0.63, 1.94, 1.59, 7.11, repro,
2007-06-23,0.15, 0.51, 0.27, 1.93, 1.59, 7.08, repro,
2007-06-24,-1.43, 0.58, 4.61, 1.97, 1.63, 7.32, repro,
2007-06-25,-0.69, 0.08, 0.41, 1.96, 1.59, 7.18, repro,
2007-06-26,-0.51, 0.12, -7.18, 1.94, 1.59, 7.10, repro,
2007-06-27,-0.58, 0.34, -6.64, 1.97, 1.64, 7.31, repro,
2007-06-28,-0.56, 1.05, -1.42, 1.96, 1.59, 7.18, repro,
2007-06-29,0.30, 0.60, 1.18, 1.93, 1.59, 7.12, repro,
2007-06-30,-1.19, 0.51, 0.46, 1.95, 1.59, 7.16, repro,
2007-07-01,-1.24, 0.65, 6.73, 1.93, 1.59, 7.09, repro,
2007-07-02,-0.43, 1.58, 2.21, 1.94, 1.59, 7.17, repro,
2007-07-03,-0.36, 1.22, -1.74, 1.94, 1.59, 7.17, repro,
2007-07-04,-0.61, 1.41, -1.97, 1.94, 1.59, 7.15, repro,
2007-07-05,-1.09, -0.54, 1.71, 1.93, 1.59, 7.11, repro,
2007-07-06,1.21, 3.30, -4.23, 1.93, 1.59, 7.08, repro,
2007-07-07,1.26, 2.38, 5.87, 1.94, 1.60, 7.14, repro,
2007-07-08,-1.53, 0.98, 3.88, 1.95, 1.60, 7.22, repro,
2007-07-09,0.28, 2.00, -2.89, 1.95, 1.61, 7.20, repro,
2007-07-10,0.70, 0.88, -1.46, 1.94, 1.61, 7.14, repro,
2007-07-11,0.53, 1.46, 1.18, 1.96, 1.61, 7.20, repro,
2007-07-12,-0.48, 0.71, 4.57, 1.97, 1.66, 7.27, repro,
2007-07-13,-0.68, 1.20, 1.01, 1.97, 1.66, 7.30, repro,
2007-07-14,-0.42, 1.36, 2.68, 2.03, 1.66, 7.46, repro,
2007-07-15,0.29, 2.28, -2.12, 1.97, 1.66, 7.28, repro,
2007-07-16,0.32, 1.04, 6.00, 1.97, 1.66, 7.32, repro,
2007-07-17,0.16, 1.69, -0.31, 1.93, 1.59, 7.04, repro,
2007-07-18,0.96, 1.60, 0.62, 1.94, 1.59, 7.13, repro,
2007-07-19,-0.56, 1.23, 6.43, 1.96, 1.61, 7.19, repro,
2007-07-20,0.85, 1.28, 3.52, 1.98, 1.67, 7.32, repro,
2007-07-21,-0.94, 1.10, 3.42, 1.98, 1.66, 7.34, repro,
2007-07-22,-0.10, 1.86, 1.08, 2.01, 1.67, 7.42, repro,
2007-07-23,-0.07, 1.14, 3.14, 1.98, 1.66, 7.31, repro,
2007-07-24,0.54, 1.60, 7.21, 2.03, 1.72, 7.53, repro,
2007-07-25,-0.45, -0.40, 4.02, 1.99, 1.67, 7.38, repro,
2007-07-26,-1.47, 0.72, 8.41, 1.96, 1.61, 7.22, repro,
2007-07-27,-0.73, 1.15, 6.00, 1.99, 1.68, 7.40, repro,
2007-07-28,0.89, 1.82, -1.55, 1.98, 1.67, 7.32, repro,
2007-07-29,-0.59, 1.93, 6.72, 1.97, 1.68, 7.33, repro,
2007-07-30,-0.81, 1.04, 5.69, 1.96, 1.62, 7.22, repro,
2007-07-31,-1.15, 0.45, 4.09, 1.95, 1.61, 7.21, repro,
2007-08-01,0.07, 0.19, 7.80, 1.94, 1.61, 7.14, repro,
2007-08-02,-0.68, -0.29, -1.35, 2.18, 1.91, 8.35, repro,
2007-08-03,-0.91, 0.94, 1.15, 1.94, 1.60, 7.14, repro,
2007-08-04,0.02, 1.72, 4.53, 1.94, 1.60, 7.12, repro,
2007-08-05,0.42, 0.88, 4.74, 1.98, 1.60, 7.23, repro,
2007-08-06,0.04, 1.43, 10.65, 1.97, 1.66, 7.37, repro,
2007-08-07,-1.31, 1.49, 5.75, 1.95, 1.63, 7.30, repro,
2007-08-08,-0.02, 0.62, 4.89, 1.93, 1.59, 7.09, repro,
2007-08-09,0.18, 0.70, 4.93, 1.93, 1.59, 7.11, repro,
2007-08-10,-0.07, 1.53, 7.02, 1.93, 1.59, 7.10, repro,
2007-08-11,0.94, 1.92, 2.77, 1.95, 1.61, 7.21, repro,
2007-08-12,0.67, 2.12, 5.72, 1.93, 1.60, 7.13, repro,
2007-08-13,0.84, 2.09, 7.91, 1.91, 1.58, 6.99, repro,
2007-08-14,0.83, 1.84, 2.51, 2.05, 1.69, 7.50, repro,
2007-08-15,0.09, 1.34, 2.33, 2.07, 1.71, 7.60, repro,
2007-08-16,0.85, 1.35, 4.91, 2.03, 1.67, 7.50, repro,
2007-08-17,0.81, 1.29, 3.04, 2.03, 1.66, 7.49, repro,
2007-08-18,1.58, 0.29, 7.74, 2.02, 1.68, 7.61, repro,
2007-08-19,0.21, 1.54, 3.89, 2.08, 1.69, 7.77, repro,
2007-08-20,0.14, 1.45, 2.44, 2.00, 1.65, 7.41, repro,
2007-08-21,-0.10, 1.60, 2.37, 2.08, 1.66, 7.55, repro,
2007-08-22,0.13, 1.93, 5.51, 2.02, 1.65, 7.42, repro,
2007-08-23,-0.18, 0.75, 10.89, 1.97, 1.61, 7.21, repro,
2007-08-24,-0.32, 1.11, 6.80, 2.09, 1.70, 7.61, repro,
2007-08-25,1.18, 2.37, 0.10, 2.03, 1.69, 7.49, repro,
2007-08-26,1.55, 3.05, -1.94, 2.06, 1.74, 7.67, repro,
2007-08-27,-0.68, 2.64, 2.47, 2.08, 1.73, 7.71, repro,
2007-08-28,0.82, 0.58, 7.23, 2.10, 1.78, 8.00, repro,
2007-08-29,0.38, 1.39, 1.03, 2.02, 1.69, 7.44, repro,
2007-08-30,0.68, 0.22, 4.57, 2.04, 1.70, 7.49, repro,
2007-08-31,1.90, 2.64, 1.59, 2.05, 1.70, 7.54, repro,
2007-09-01,0.77, 2.09, 5.09, 2.11, 1.71, 7.77, repro,
2007-09-02,0.81, 1.17, 4.00, 2.03, 1.69, 7.48, repro,
2007-09-03,1.62, 1.47, 0.92, 2.04, 1.69, 7.51, repro,
2007-09-04,0.81, 2.05, 3.64, 2.05, 1.70, 7.55, repro,
2007-09-05,0.03, -0.01, 9.99, 2.02, 1.68, 7.49, repro,
2007-09-06,0.59, 0.34, 6.62, 2.02, 1.70, 7.50, repro,
2007-09-07,0.99, 0.82, 6.00, 2.06, 1.73, 7.62, repro,
2007-09-08,0.39, 0.75, 5.34, 2.14, 1.83, 8.00, repro,
2007-09-09,-0.29, -0.82, 1.81, 2.13, 1.79, 7.92, repro,
2007-09-10,-0.12, 0.94, 3.96, 2.14, 1.77, 7.81, repro,
2007-09-11,1.51, -1.24, 5.53, 2.20, 1.86, 8.19, repro,
2007-09-12,1.25, 0.30, 0.47, 2.32, 1.94, 8.51, repro,
2007-09-13,-0.18, -0.04, 3.24, 2.26, 1.79, 8.07, repro,
2007-09-14,1.41, -1.43, -1.44, 2.21, 1.83, 8.07, repro,
2007-09-15,-0.85, -0.50, 6.27, 2.25, 1.73, 8.18, repro,
2007-09-16,0.16, -1.26, 5.88, 2.13, 1.70, 7.71, repro,
2007-09-17,0.34, -0.16, 4.77, 2.15, 1.84, 8.09, repro,
2007-09-18,1.13, 1.05, 5.37, 2.22, 1.83, 8.26, repro,
2007-09-19,0.26, 0.17, 1.96, 2.06, 1.71, 7.51, repro,
2007-09-20,-0.39, 0.50, 6.11, 2.00, 1.63, 7.32, repro,
2007-09-21,-0.76, -1.64, 1.17, 2.07, 1.70, 7.67, repro,
2007-09-22,-0.45, 0.78, 9.10, 2.04, 1.66, 7.52, repro,
2007-09-23,0.74, 0.98, 6.40, 2.06, 1.72, 7.65, repro,
2007-09-24,-0.14, 1.57, 2.04, 2.13, 1.71, 7.82, repro,
2007-09-25,-1.33, 0.46, 0.51, 2.02, 1.65, 7.46, repro,
2007-09-26,0.04, 0.23, 4.23, 2.09, 1.65, 7.63, repro,
2007-09-27,-0.81, 0.35, 7.43, 2.03, 1.66, 7.54, repro,
2007-09-28,-1.02, 0.31, 5.15, 2.07, 1.75, 7.66, repro,
2007-09-29,-0.27, 0.63, 6.95, 2.01, 1.70, 7.51, repro,
2007-09-30,0.25, 0.08, 5.34, 2.06, 1.71, 7.66, repro,
2007-10-01,0.18, -0.43, 3.04, 2.03, 1.72, 7.67, repro,
2007-10-02,0.09, 0.35, 10.35, 2.06, 1.75, 7.82, repro,
2007-10-03,0.15, 0.88, 10.64, 2.12, 1.77, 7.92, repro,
2007-10-04,-0.22, 0.69, 11.04, 2.13, 1.70, 7.85, repro,
2007-10-05,-0.07, -1.40, 11.71, 2.12, 1.78, 8.02, repro,
2007-10-06,-1.09, 0.09, 5.21, 2.06, 1.72, 7.71, repro,
2007-10-07,0.00, 0.65, 8.65, 2.06, 1.73, 7.79, repro,
2007-10-08,-0.92, 0.99, 7.55, 2.22, 1.80, 8.49, repro,
2007-10-09,-0.93, 0.84, 8.86, 2.17, 1.87, 8.20, repro,
2007-10-10,-0.80, 1.03, 3.81, 2.14, 1.74, 7.99, repro,
2007-10-11,-0.95, 0.60, 4.02, 2.01, 1.71, 7.63, repro,
2007-10-12,1.47, 1.41, 7.03, 2.02, 1.72, 7.63, repro,
2007-10-13,-0.58, 1.24, 15.66, 1.97, 1.64, 7.34, repro,
2007-10-14,-2.20, 0.24, 7.94, 1.97, 1.65, 7.40, repro,
2007-10-15,-1.28, -0.13, 9.21, 1.98, 1.66, 7.40, repro,
2007-10-16,-1.96, 0.84, 15.33, 1.97, 1.66, 7.38, repro,
2007-10-17,-0.49, -0.12, 7.48, 2.01, 1.69, 7.55, repro,
2007-10-18,0.43, 0.97, 11.48, 1.96, 1.65, 7.37, repro,
2007-10-19,-0.35, 0.88, 11.66, 1.96, 1.64, 7.31, repro,
2007-10-20,-0.63, -1.07, 6.12, 2.02, 1.69, 7.60, repro,
2007-10-21,-0.82, 1.98, 7.89, 1.98, 1.66, 7.44, repro,
2007-10-22,0.55, 2.80, 5.29, 1.99, 1.70, 7.56, repro,
2007-10-23,-1.27, 1.09, -4.87, 2.04, 1.75, 7.76, repro,
2007-10-24,-0.39, 1.68, 0.10, 2.05, 1.74, 7.73, repro,
2007-10-25,-0.84, 1.37, 2.14, 2.00, 1.68, 7.47, repro,
2007-10-26,-1.14, 0.91, 0.63, 2.00, 1.70, 7.49, repro,
2007-10-27,-0.98, 1.51, -3.62, 2.01, 1.70, 7.62, repro,
2007-10-28,-0.76, 1.23, 0.27, 2.02, 1.67, 7.58, repro,
2007-10-29,0.10, 2.42, 0.35, 1.96, 1.64, 7.29, repro,
2007-10-30,0.58, 1.52, 2.36, 1.97, 1.64, 7.34, repro,
2007-10-31,-1.37, 1.03, 1.65, 1.96, 1.65, 7.36, repro,
2007-11-01,-0.44, 1.47, 2.71, 1.94, 1.63, 7.29, repro,
2007-11-02,-1.54, 1.03, 3.12, 1.94, 1.62, 7.21, repro,
2007-11-03,-1.16, 1.47, 0.84, 1.93, 1.61, 7.11, repro,
2007-11-04,-0.96, 1.10, 2.56, 1.95, 1.61, 7.18, repro,
2007-11-05,-0.48, 1.63, -2.33, 1.94, 1.62, 7.19, repro,
2007-11-06,-0.37, 0.77, -3.67, 2.05, 1.80, 7.74, repro,
2007-11-07,-1.33, 1.29, 0.60, 1.93, 1.62, 7.18, repro,
2007-11-08,-1.33, 0.86, 1.17, 1.98, 1.66, 7.35, repro,
2007-11-09,-0.97, 0.19, -3.01, 1.97, 1.64, 7.29, repro,
2007-11-10,-0.58, 0.08, 2.20, 1.95, 1.62, 7.25, repro,
2007-11-11,0.28, -0.02, 2.23, 1.93, 1.61, 7.19, repro,
2007-11-12,-0.18, 0.64, 1.33, 1.95, 1.64, 7.26, repro,
2007-11-13,0.10, 0.76, -0.14, 1.93, 1.61, 7.21, repro,
2007-11-14,0.04, 1.08, -1.37, 2.09, 1.78, 7.74, repro,
2007-11-15,-0.49, 0.70, -1.94, 1.97, 1.63, 7.35, repro,
2007-11-16,0.50, 0.14, 2.33, 1.96, 1.64, 7.33, repro,
2007-11-17,-0.62, 0.05, 1.36, 1.93, 1.61, 7.20, repro,
2007-11-18,-0.02, 0.51, -1.69, 1.96, 1.64, 7.30, repro,
2007-11-19,1.23, 0.74, -2.69, 1.96, 1.65, 7.32, repro,
2007-11-20,0.88, 0.25, -2.78, 2.04, 1.72, 7.50, repro,
2007-11-21,0.36, 1.03, 0.08, 2.09, 1.82, 7.86, repro,
2007-11-22,0.21, 0.68, -1.84, 2.05, 1.70, 7.54, repro,
2007-11-23,-0.03, 0.12, 1.32, 2.09, 1.82, 7.90, repro,
2007-11-24,0.58, -0.21, -1.36, 2.03, 1.74, 7.45, repro,
2007-11-25,0.71, 0.53, -1.93, 2.13, 1.81, 7.79, repro,
2007-11-26,0.20, 0.81, -0.73, 2.10, 1.82, 7.87, repro,
2007-11-27,-0.23, 1.27, 0.11, 2.06, 1.74, 7.62, repro,
2007-11-28,0.24, 0.38, -4.78, 2.08, 1.75, 7.64, repro,
2007-11-29,0.26, -0.63, -4.49, 2.12, 1.79, 7.77, repro,
2007-11-30,0.35, 1.15, -4.80, 2.06, 1.76, 7.57, repro,
2007-12-01,0.54, 0.44, 6.84, 2.11, 1.82, 7.87, repro,
2007-12-02,-0.91, 0.08, 2.12, 2.24, 1.92, 8.44, repro,
2007-12-03,-0.28, 1.04, -4.00, 2.27, 1.96, 8.73, repro,
2007-12-04,0.06, -0.71, -1.29, 2.31, 2.09, 8.67, repro,
2007-12-05,0.39, -0.36, -4.85, 2.31, 2.09, 8.83, repro,
2007-12-06,1.42, 1.62, 2.88, 2.22, 1.93, 8.47, repro,
2007-12-07,-1.51, 4.30, 8.41, 2.26, 1.96, 8.41, repro,
2007-12-08,-0.28, 1.68, -1.13, 2.06, 1.73, 7.66, repro,
2007-12-09,-0.06, 1.70, -1.01, 2.42, 2.29, 9.29, repro,
2007-12-10,-0.05, 2.54, -4.27, 2.06, 1.80, 7.72, repro,
2007-12-11,-1.85, -0.52, 0.30, 2.14, 1.78, 7.95, repro,
2007-12-12,1.61, -0.20, -10.00, 2.17, 1.78, 8.06, repro,
2007-12-13,0.63, 0.26, -8.19, 2.04, 1.67, 7.54, repro,
2007-12-14,0.16, 0.76, -0.24, 2.01, 1.65, 7.46, repro,
2007-12-15,0.27, 0.71, 1.69, 2.01, 1.65, 7.47, repro,
2007-12-16,0.22, 0.36, 0.65, 2.00, 1.64, 7.43, repro,
2007-12-17,0.90, -0.25, 2.40, 2.04, 1.70, 7.49, repro,
2007-12-18,1.56, 1.25, 4.60, 2.02, 1.69, 7.49, repro,
2007-12-19,1.04, 0.72, 4.44, 2.10, 1.76, 7.93, repro,
2007-12-20,0.66, 0.46, 3.09, 2.03, 1.68, 7.50, repro,
2007-12-21,-0.39, 0.41, -1.54, 2.14, 1.78, 7.90, repro,
2007-12-22,1.21, 0.51, -1.66, 2.11, 1.76, 7.93, repro,
2007-12-23,-0.98, 1.23, -3.37, 2.04, 1.73, 7.58, repro,
2007-12-24,0.05, 0.67, 0.43, 2.16, 1.88, 7.87, repro,
2007-12-25,0.16, 0.51, 4.68, 2.07, 1.73, 7.57, repro,
2007-12-26,-0.46, -0.05, 5.26, 2.03, 1.66, 7.50, repro,
2007-12-27,1.25, 0.49, 1.95, 2.04, 1.69, 7.52, repro,
2007-12-28,-0.59, 0.70, 0.93, 2.07, 1.70, 7.58, repro,
2007-12-29,-0.17, 1.12, 5.78, 2.06, 1.71, 7.61, repro,
2007-12-30,-0.96, 0.75, -1.98, 2.05, 1.69, 7.57, repro,
2007-12-31,0.06, 1.33, -1.62, 2.02, 1.63, 7.40, repro,
2008-01-01,0.36, 0.51, -10.24, 1.98, 1.61, 7.27, repro,
2008-01-02,-0.13, 0.65, -8.37, 1.99, 1.61, 7.26, repro,
2008-01-03,0.66, 1.37, -3.43, 2.01, 1.64, 7.37, repro,
2008-01-04,1.81, 1.65, -1.62, 2.01, 1.66, 7.46, repro,
2008-01-05,-4.39, 0.60, 14.23, 1.97, 1.58, 7.21, repro,
2008-01-06,-2.94, -0.60, 10.21, 1.98, 1.60, 7.29, repro,
2008-01-07,-1.53, -1.15, 7.46, 1.98, 1.61, 7.34, repro,
2008-01-08,-3.59, -1.38, -4.25, 2.01, 1.61, 7.44, repro,
2008-01-09,-1.30, 0.59, 0.91, 2.02, 1.61, 7.47, repro,
2008-01-10,-0.29, 0.80, 0.28, 1.97, 1.60, 7.28, repro,
2008-01-11,-0.20, 0.79, 2.11, 1.97, 1.61, 7.30, repro,
2008-01-12,-1.10, -0.12, -0.73, 1.95, 1.62, 7.28, repro,
2008-01-13,-1.04, -0.03, -10.47, 1.95, 1.61, 7.26, repro,
2008-01-14,-0.10, 0.80, -3.23, 1.95, 1.61, 7.26, repro,
2008-01-15,0.56, 0.64, -0.40, 1.94, 1.59, 7.17, repro,
2008-01-16,-0.00, 0.74, -5.09, 2.01, 1.62, 7.41, repro,
2008-01-17,-0.49, 0.64, 0.30, 2.00, 1.63, 7.45, repro,
2008-01-18,-1.84, 0.28, -4.97, 1.96, 1.66, 7.40, repro,
2008-01-19,0.03, 0.84, -8.40, 1.94, 1.61, 7.20, repro,
2008-01-20,-0.86, 0.62, 0.40, 1.95, 1.62, 7.24, repro,
2008-01-21,-1.54, 0.36, -0.07, 1.96, 1.61, 7.27, repro,
2008-01-22,-2.18, -0.49, -2.33, 1.95, 1.63, 7.21, repro,
2008-01-23,-0.81, 0.49, -2.38, 1.95, 1.61, 7.27, repro,
2008-01-24,-0.89, 0.30, -0.24, 1.94, 1.62, 7.25, repro,
2008-01-25,-0.57, 0.40, -3.71, 1.94, 1.61, 7.21, repro,
2008-01-26,-1.20, 3.40, -6.58, 1.97, 1.63, 7.28, repro,
2008-01-27,-1.02, 3.61, 5.12, 1.95, 1.61, 7.25, repro,
2008-01-28,-0.35, 4.16, 12.10, 1.98, 1.63, 7.31, repro,
2008-01-29,-2.31, 1.59, 2.13, 2.04, 1.73, 7.54, repro,
2008-01-30,-1.50, 1.05, 0.74, 2.05, 1.70, 7.62, repro,
2008-01-31,-0.08, -0.08, -6.03, 1.95, 1.63, 7.31, repro,
2008-02-01,0.79, 0.39, -5.46, 1.94, 1.62, 7.27, repro,
2008-02-02,-0.61, 0.46, -7.91, 1.95, 1.61, 7.25, repro,
2008-02-03,-1.82, 1.67, -1.78, 1.94, 1.62, 7.24, repro,
2008-02-04,-2.43, 1.51, 2.84, 1.93, 1.60, 7.20, repro,
2008-02-05,1.16, 1.75, -1.71, 1.97, 1.67, 7.32, repro,
2008-02-06,-0.52, 0.63, -4.14, 1.98, 1.67, 7.38, repro,
2008-02-07,-0.61, 0.70, -4.12, 1.99, 1.64, 7.41, repro,
2008-02-08,-0.88, 0.51, -2.47, 1.93, 1.59, 7.12, repro,
2008-02-09,-0.92, 0.99, -3.22, 1.96, 1.62, 7.25, repro,
2008-02-10,-0.38, 0.77, -2.59, 1.95, 1.62, 7.34, repro,
2008-02-11,-0.34, 0.52, -1.45, 1.94, 1.60, 7.20, repro,
2008-02-12,-1.77, 1.85, -0.56, 1.96, 1.61, 7.26, repro,
2008-02-13,-0.64, 0.08, -0.83, 1.96, 1.61, 7.27, repro,
2008-02-14,-0.32, 0.17, -1.06, 1.95, 1.62, 7.25, repro,
2008-02-15,-0.76, 0.20, -4.40, 1.99, 1.66, 7.35, repro,
2008-02-16,-1.55, 0.81, 0.17, 1.95, 1.61, 7.24, repro,
2008-02-17,-1.03, 0.72, -2.76, 1.95, 1.60, 7.19, repro,
2008-02-18,-1.72, 0.24, -1.98, 1.94, 1.61, 7.21, repro,
2008-02-19,-1.69, -0.14, 1.41, 1.93, 1.63, 7.23, repro,
2008-02-20,-2.11, 0.57, 0.92, 1.95, 1.61, 7.24, repro,
2008-02-21,-1.28, 0.22, 4.97, 1.95, 1.61, 7.24, repro,
2008-02-22,-0.58, 1.29, 7.53, 1.96, 1.62, 7.32, repro,
2008-02-23,-2.12, 1.71, -3.83, 1.95, 1.61, 7.22, repro,
2008-02-24,-0.75, 1.79, 14.83, 1.94, 1.60, 7.17, repro,
2008-02-25,-1.89, 1.02, -4.02, 1.95, 1.62, 7.27, repro,
2008-02-26,-0.79, 0.28, -6.99, 1.95, 1.62, 7.35, repro,
2008-02-27,-0.80, -0.24, -9.57, 2.00, 1.65, 7.44, repro,
2008-02-28,-1.15, -0.55, -5.82, 2.05, 1.75, 7.93, repro,
2008-02-29,-0.25, -0.60, -3.65, 1.98, 1.64, 7.37, repro,
2008-03-01,-0.84, -0.07, -4.54, 1.98, 1.65, 7.44, repro,
2008-03-02,-1.14, -0.25, -4.38, 2.01, 1.71, 7.74, repro,
2008-03-03,-0.46, -0.72, -2.73, 1.97, 1.64, 7.44, repro,
2008-03-04,-1.36, 0.11, -2.77, 1.96, 1.60, 7.29, repro,
2008-03-05,-0.13, 1.20, -3.21, 2.07, 1.76, 7.82, repro,
2008-03-06,-0.38, -0.47, -2.67, 1.94, 1.60, 7.20, repro,
2008-03-07,-0.99, 0.05, -6.26, 1.94, 1.60, 7.16, repro,
2008-03-08,-2.06, -0.28, 1.36, 2.01, 1.70, 7.70, repro,
2008-03-09,-0.72, -0.77, -4.46, 1.97, 1.64, 7.44, repro,
2008-03-10,-0.45, 0.28, -3.65, 1.96, 1.62, 7.28, repro,
2008-03-11,0.03, -0.72, -2.04, 1.95, 1.60, 7.20, repro,
2008-03-12,0.78, -0.67, 1.76, 1.99, 1.64, 7.39, repro,
2008-03-13,-0.58, 1.14, 0.14, 1.98, 1.64, 7.43, repro,
2008-03-14,-0.13, -0.49, 3.61, 1.98, 1.64, 7.43, repro,
2008-03-15,-2.31, 0.33, -0.37, 1.98, 1.63, 7.43, repro,
2008-03-16,-2.03, -2.70, 2.00, 2.01, 1.69, 7.60, repro,
2008-03-17,0.98, -2.48, -1.51, 2.10, 1.87, 8.25, repro,
2008-03-18,0.17, -1.37, -1.89, 1.99, 1.68, 7.50, repro,
2008-03-19,-1.01, -1.09, -2.38, 1.98, 1.64, 7.39, repro,
2008-03-20,-0.63, -2.14, 0.57, 1.99, 1.65, 7.38, repro,
2008-03-21,-0.59, -1.56, -6.88, 1.98, 1.66, 7.41, repro,
2008-03-22,0.03, -0.61, -7.12, 2.02, 1.68, 7.55, repro,
2008-03-23,-0.66, -1.07, -7.05, 2.01, 1.67, 7.52, repro,
2008-03-24,-0.13, -0.95, -4.48, 1.99, 1.64, 7.38, repro,
2008-03-25,-0.63, -0.22, 1.22, 2.04, 1.69, 7.58, repro,
2008-03-26,-1.15, -1.16, -1.74, 2.01, 1.67, 7.41, repro,
2008-03-27,0.26, -1.43, -2.95, 2.01, 1.67, 7.45, repro,
2008-03-28,-0.37, -1.45, 2.55, 2.00, 1.64, 7.36, repro,
2008-03-29,-0.97, 0.24, 3.31, 1.97, 1.60, 7.26, repro,
2008-03-30,-1.51, -2.36, -2.21, 1.97, 1.60, 7.27, repro,
2008-03-31,-0.35, -0.39, 0.65, 1.99, 1.62, 7.33, repro,
2008-04-01,-0.43, -1.19, 3.15, 1.97, 1.61, 7.30, repro,
2008-04-02,-0.54, -0.60, 0.29, 2.02, 1.63, 7.48, repro,
2008-04-03,-0.57, -0.42, -0.19, 1.97, 1.60, 7.26, repro,
2008-04-04,-0.32, -1.17, -2.25, 1.96, 1.59, 7.22, repro,
2008-04-05,-0.41, -1.22, 1.88, 1.98, 1.60, 7.31, repro,
2008-04-06,-0.53, -0.88, 0.97, 1.97, 1.60, 7.26, repro,
2008-04-07,-0.99, -0.12, 0.14, 1.98, 1.62, 7.35, repro,
2008-04-08,-0.27, -1.40, 4.19, 1.98, 1.60, 7.30, repro,
2008-04-09,-1.79, -1.27, 7.25, 1.97, 1.60, 7.25, repro,
2008-04-10,-0.57, -1.11, 2.42, 1.98, 1.61, 7.28, repro,
2008-04-11,-0.75, -1.05, -3.44, 1.98, 1.61, 7.31, repro,
2008-04-12,-0.12, -0.65, -5.32, 1.96, 1.59, 7.27, repro,
2008-04-13,0.26, -0.37, -2.67, 1.96, 1.60, 7.27, repro,
2008-04-14,-0.19, -0.80, -4.99, 1.97, 1.60, 7.27, repro,
2008-04-15,-1.23, -1.32, -0.54, 2.01, 1.66, 7.44, repro,
2008-04-16,-0.56, -1.29, 1.51, 2.01, 1.65, 7.43, repro,
2008-04-17,-0.37, -0.78, -2.38, 1.99, 1.60, 7.31, repro,
2008-04-18,0.04, -0.67, -1.25, 1.97, 1.59, 7.29, repro,
2008-04-19,0.07, -0.17, -3.64, 1.98, 1.59, 7.27, repro,
2008-04-20,-1.81, -1.57, -0.72, 1.98, 1.59, 7.26, repro,
2008-04-21,-0.11, -1.07, -1.71, 1.98, 1.59, 7.27, repro,
2008-04-22,-1.03, -0.39, -3.76, 1.99, 1.61, 7.31, repro,
2008-04-23,0.54, -0.09, -3.10, 2.05, 1.67, 7.61, repro,
2008-04-24,0.45, -0.76, -2.01, 2.00, 1.64, 7.51, repro,
2008-04-25,-1.12, -0.18, -2.38, 2.03, 1.63, 7.40, repro,
2008-04-26,-1.26, -0.47, -6.30, 2.10, 1.64, 7.66, repro,
2008-04-27,-1.63, 0.26, -5.31, 2.07, 1.63, 7.52, repro,
2008-04-28,-0.74, -0.90, -5.36, 2.08, 1.62, 7.55, repro,
2008-04-29,0.11, -2.27, 3.95, 2.14, 1.70, 7.70, repro,
2008-04-30,-0.85, -2.02, 4.56, 2.06, 1.67, 7.57, repro,
2008-05-01,-1.25, -0.37, -1.25, 2.04, 1.63, 7.46, repro,
2008-05-02,-1.69, 0.33, -1.82, 2.07, 1.65, 7.55, repro,
2008-05-03,-1.19, -1.10, 1.76, 2.04, 1.63, 7.45, repro,
2008-05-04,-0.73, 0.47, 4.82, 2.00, 1.60, 7.31, repro,
2008-05-05,-1.88, -0.71, -2.78, 2.03, 1.63, 7.46, repro,
2008-05-06,-1.09, -0.96, -8.00, 2.11, 1.66, 7.80, repro,
2008-05-07,-2.62, -2.43, 6.99, 2.02, 1.61, 7.43, repro,
2008-05-08,-1.43, -0.54, 3.04, 2.19, 1.72, 7.90, repro,
2008-05-09,0.00, -0.93, 5.09, 2.09, 1.71, 7.62, repro,
2008-05-10,-0.55, 0.53, 3.53, 2.03, 1.63, 7.44, repro,
2008-05-11,-0.05, -0.25, 2.13, 2.02, 1.63, 7.43, repro,
2008-05-12,-2.33, -0.44, 2.19, 2.05, 1.63, 7.49, repro,
2008-05-13,-0.08, -1.07, 1.13, 2.01, 1.60, 7.37, repro,
2008-05-14,4.82, 2.97, 0.98, 2.02, 1.60, 7.33, repro,
2008-05-15,1.99, -0.42, 3.07, 1.99, 1.56, 7.19, repro,
2008-05-16,-3.67, -2.51, -10.38, 2.02, 1.58, 7.26, repro,
2008-05-17,-1.27, -0.22, 1.26, 2.04, 1.60, 7.34, repro,
2008-05-18,-1.04, -0.03, -1.92, 2.12, 1.64, 7.70, repro,
2008-05-19,-0.64, -1.36, 2.22, 2.00, 1.59, 7.33, repro,
2008-05-20,-0.32, 0.34, 5.94, 2.02, 1.62, 7.41, repro,
2008-05-21,-1.59, 1.40, 16.50, 1.99, 1.58, 7.30, repro,
2008-05-22,-1.08, -0.93, 8.27, 2.01, 1.62, 7.42, repro,
2008-05-23,-1.21, -0.42, 9.91, 2.04, 1.67, 7.58, repro,
2008-05-24,-0.81, 0.73, 6.89, 2.01, 1.63, 7.46, repro,
2008-05-25,-1.54, 0.21, 6.06, 2.01, 1.62, 7.41, repro,
2008-05-26,-1.85, 0.44, 5.89, 2.04, 1.66, 7.54, repro,
2008-05-27,-1.74, 0.72, -1.50, 2.03, 1.62, 7.47, repro,
2008-05-28,-0.03, -0.41, -1.98, 2.04, 1.65, 7.37, repro,
2008-05-29,-1.39, 0.25, -0.52, 2.06, 1.70, 7.62, repro,
2008-05-30,-0.13, 0.71, 2.12, 2.03, 1.64, 7.51, repro,
2008-05-31,-0.47, 1.15, 2.64, 2.02, 1.65, 7.53, repro,
2008-06-01,-1.32, 0.66, 3.84, 2.01, 1.63, 7.46, repro,
2008-06-02,-0.46, -0.53, -0.39, 2.03, 1.65, 7.48, repro,
2008-06-03,-0.41, 0.44, 5.93, 2.05, 1.65, 7.57, repro,
2008-06-04,-0.86, -0.37, 11.69, 2.00, 1.60, 7.35, repro,
2008-06-05,-0.80, -0.35, 5.81, 2.01, 1.62, 7.40, repro,
2008-06-06,0.44, 0.21, 5.75, 2.01, 1.62, 7.35, repro,
2008-06-07,-0.96, 0.28, 8.55, 2.06, 1.67, 7.54, repro,
2008-06-08,-0.16, 0.69, 1.09, 2.03, 1.65, 7.42, repro,
2008-06-09,0.78, 0.99, 3.01, 2.04, 1.65, 7.41, repro,
2008-06-10,0.07, -0.26, 3.75, 1.99, 1.58, 7.27, repro,
2008-06-11,-1.40, 0.68, 5.99, 2.01, 1.58, 7.33, repro,
2008-06-12,-1.19, 1.11, 3.92, 2.01, 1.62, 7.37, repro,
2008-06-13,-0.51, 1.76, -1.56, 2.01, 1.60, 7.33, repro,
2008-06-14,0.87, 2.15, -3.32, 2.06, 1.63, 7.47, repro,
2008-06-15,0.40, 0.81, 2.73, 2.04, 1.63, 7.43, repro,
2008-06-16,-1.21, 1.17, 1.96, 2.01, 1.61, 7.36, repro,
2008-06-17,-0.33, -0.19, 0.20, 1.99, 1.59, 7.25, repro,
2008-06-18,-0.96, 1.27, 3.79, 1.99, 1.59, 7.23, repro,
2008-06-19,0.48, 0.71, 3.13, 2.07, 1.73, 7.78, repro,
2008-06-20,-0.84, 0.60, 2.44, 1.99, 1.59, 7.31, repro,
2008-06-21,0.31, 1.15, -5.00, 2.00, 1.60, 7.28, repro,
2008-06-22,-0.18, 0.72, 1.47, 2.05, 1.66, 7.40, repro,
2008-06-23,-1.99, -0.14, 5.26, 2.04, 1.64, 7.40, repro,
2008-06-24,-1.05, 1.09, 3.48, 2.05, 1.67, 7.42, repro,
2008-06-25,-0.08, 1.22, 6.53, 1.99, 1.60, 7.27, repro,
2008-06-26,-0.14, 1.70, 6.56, 2.04, 1.71, 7.49, repro,
2008-06-27,-0.53, 0.52, 2.18, 1.98, 1.57, 7.24, repro,
2008-06-28,0.90, 1.81, 1.81, 2.02, 1.65, 7.33, repro,
2008-06-29,0.68, 0.63, 0.74, 2.04, 1.64, 7.36, repro,
2008-06-30,0.60, 2.13, -0.55, 2.05, 1.67, 7.42, repro,
2008-07-01,-0.18, 0.82, 0.74, 2.02, 1.64, 7.36, repro,
2008-07-02,-0.55, 1.26, -0.16, 1.99, 1.58, 7.23, repro,
2008-07-03,-0.32, 0.52, 2.86, 1.98, 1.57, 7.19, repro,
2008-07-04,0.97, 0.76, 8.01, 2.00, 1.59, 7.24, repro,
2008-07-05,-0.74, 1.50, 7.79, 2.00, 1.59, 7.31, repro,
2008-07-06,-0.09, 1.57, 11.96, 2.01, 1.60, 7.30, repro,
2008-07-07,-0.29, 0.86, 11.29, 2.03, 1.65, 7.39, repro,
2008-07-08,-0.65, 0.15, 5.34, 2.01, 1.58, 7.28, repro,